TimeCDT,TemperatureF,Dew PointF,Humidity,Sea Level PressureIn,VisibilityMPH,Wind Direction,Wind SpeedMPH,Gust SpeedMPH,PrecipitationIn,Events,Conditions,WindDirDegrees,DateUTC
12:51 AM,30.9,21.0,67,30.02,10.0,East,11.5,20.7,N/A,,Overcast,100,2013-03-18 05:51:00
1:22 AM,30.2,21.2,69,29.96,10.0,East,13.8,-,N/A,,Overcast,90,2013-03-18 06:22:00
1:51 AM,30.0,21.0,69,29.99,10.0,East,11.5,-,N/A,,Overcast,100,2013-03-18 06:51:00
1:59 AM,30.2,21.2,69,29.95,10.0,East,11.5,-,N/A,,Overcast,100,2013-03-18 06:59:00
2:51 AM,30.0,21.0,69,29.95,10.0,East,11.5,-,N/A,,Mostly Cloudy,90,2013-03-18 07:51:00
3:51 AM,30.9,21.9,69,29.89,10.0,East,12.7,-,N/A,,Overcast,80,2013-03-18 08:51:00
4:26 AM,30.2,21.2,69,29.85,10.0,ENE,13.8,-,N/A,,Overcast,70,2013-03-18 09:26:00
4:51 AM,30.9,23.0,72,29.86,7.0,East,16.1,-,0.00,Snow,Light Snow,90,2013-03-18 09:51:00
5:51 AM,30.9,24.1,76,29.83,7.0,East,12.7,-,0.00,Rain-Snow,Freezing Rain,80,2013-03-18 10:51:00
6:00 AM,30.2,24.8,80,29.80,7.0,East,12.7,-,0.00,Rain-Snow,Light Snow,80,2013-03-18 11:00:00
6:37 AM,30.2,24.8,80,29.78,7.0,East,12.7,-,0.00,Rain-Snow,Freezing Rain,80,2013-03-18 11:37:00
6:51 AM,30.9,25.0,79,29.82,7.0,East,12.7,-,0.00,Rain-Snow,Freezing Rain,80,2013-03-18 11:51:00
7:22 AM,30.2,26.6,86,29.76,4.0,ENE,9.2,-,0.01,Rain,Light Freezing Rain,70,2013-03-18 12:22:00
7:51 AM,30.9,27.0,85,29.78,4.0,ENE,10.4,-,0.01,Rain,Light Freezing Rain,70,2013-03-18 12:51:00
8:51 AM,30.9,27.0,85,29.75,3.0,ENE,11.5,-,0.00,Rain,Light Freezing Rain,70,2013-03-18 13:51:00
9:10 AM,30.2,26.6,86,29.72,3.0,East,9.2,-,0.00,Rain,Light Freezing Rain,80,2013-03-18 14:10:00
9:21 AM,30.2,28.4,93,29.71,3.0,East,8.1,-,0.00,,Light Freezing Drizzle,80,2013-03-18 14:21:00
9:35 AM,30.2,28.4,93,29.71,2.0,East,6.9,-,0.00,,Light Freezing Drizzle,80,2013-03-18 14:35:00
9:51 AM,30.9,28.0,89,29.73,2.0,East,6.9,-,0.00,,Light Freezing Drizzle,90,2013-03-18 14:51:00
10:15 AM,30.2,28.4,93,29.70,1.8,East,8.1,-,0.00,Rain,Light Freezing Rain,100,2013-03-18 15:15:00
10:51 AM,32.0,28.9,88,29.72,2.5,ESE,8.1,-,0.01,Rain,Light Freezing Rain,110,2013-03-18 15:51:00
11:18 AM,32.0,28.4,87,29.67,3.0,ESE,5.8,-,0.00,Rain,Light Rain,110,2013-03-18 16:18:00
11:51 AM,32.0,30.0,92,29.69,5.0,ESE,3.5,-,0.00,,Light Drizzle,120,2013-03-18 16:51:00
12:08 PM,32.0,28.4,87,29.65,2.5,SE,4.6,-,0.00,Rain,Light Rain,130,2013-03-18 17:08:00
12:21 PM,33.8,30.2,87,29.65,4.0,SSE,4.6,-,0.00,Rain,Light Rain,150,2013-03-18 17:21:00
12:51 PM,33.1,30.0,89,29.67,8.0,SSW,4.6,-,0.00,Rain,Light Rain,200,2013-03-18 17:51:00
1:51 PM,33.8,30.2,87,29.62,10.0,SSW,5.8,-,N/A,,Overcast,210,2013-03-18 18:51:00
2:51 PM,34.0,30.0,85,29.65,9.0,SW,11.5,-,0.00,,Light Drizzle,230,2013-03-18 19:51:00
3:03 PM,33.8,30.2,87,29.62,1.5,WSW,12.7,-,0.00,Snow,Light Snow,240,2013-03-18 20:03:00
3:29 PM,33.8,30.2,87,29.61,3.0,WSW,10.4,-,0.00,Snow,Light Snow,240,2013-03-18 20:29:00
3:51 PM,35.1,30.9,85,29.65,9.0,WSW,13.8,20.7,0.00,Snow,Light Snow,250,2013-03-18 20:51:00
4:15 PM,35.6,32.0,87,29.62,9.0,West,11.5,25.3,0.00,,Overcast,260,2013-03-18 21:15:00
4:20 PM,35.6,30.2,81,29.62,2.0,West,15.0,-,0.00,Snow,Light Snow,260,2013-03-18 21:20:00
4:31 PM,35.6,32.0,87,29.62,3.0,WSW,11.5,24.2,0.00,Snow,Light Snow,250,2013-03-18 21:31:00
4:51 PM,35.1,32.0,89,29.66,5.0,WSW,12.7,-,0.00,,Light Drizzle,250,2013-03-18 21:51:00
5:51 PM,35.1,30.9,85,29.67,10.0,West,15.0,23.0,0.00,,Overcast,260,2013-03-18 22:51:00
6:51 PM,34.0,28.9,82,29.71,5.0,West,19.6,31.1,0.00,,Haze,260,2013-03-18 23:51:00
7:51 PM,30.0,21.0,69,29.75,9.0,West,23.0,33.4,0.00,Snow,Light Snow,260,2013-03-19 00:51:00
8:51 PM,27.0,18.0,69,29.79,10.0,West,19.6,32.2,0.00,Snow,Light Snow,260,2013-03-19 01:51:00
9:51 PM,26.1,14.0,60,29.81,10.0,West,23.0,35.7,0.00,Snow,Light Snow,280,2013-03-19 02:51:00
10:17 PM,24.8,15.8,69,29.78,7.0,West,18.4,27.6,0.00,Snow,Light Snow,260,2013-03-19 03:17:00
10:51 PM,24.1,10.9,57,29.83,8.0,West,28.8,35.7,0.00,Snow,Light Snow,280,2013-03-19 03:51:00
11:51 PM,23.0,10.9,60,29.84,10.0,West,23.0,34.5,0.00,Snow,Light Snow,260,2013-03-19 04:51:00